Time,TemperatureF,DewpointF,PressureIn,WindDirection,WindDirectionDegrees,WindSpeedMPH,WindSpeedGustMPH,Humidity,HourlyPrecipIn,Conditions,Clouds,dailyrainin,SoftwareType,DateUTC
2013-09-02 00:01:00,72.5,70.4,29.74,SW,225,0.0,0.0,93,0.00,,,0.00,VWS V14.01,2013-09-02 04:01:00,
2013-09-02 00:02:00,72.4,70.3,29.74,SW,225,0.0,0.0,93,0.00,,,0.00,VWS V14.01,2013-09-02 04:02:00,
2013-09-02 00:03:00,72.4,70.3,29.74,SW,225,0.0,0.0,93,0.00,,,0.00,VWS V14.01,2013-09-02 04:03:00,
2013-09-02 00:08:00,72.3,70.2,29.75,SW,225,0.0,0.0,93,0.00,,,0.00,VWS V14.01,2013-09-02 04:08:00,
2013-09-02 00:13:00,72.2,70.1,29.75,SW,225,0.0,0.0,93,0.00,,,0.00,VWS V14.01,2013-09-02 04:13:00,
2013-09-02 00:18:00,72.3,70.5,29.75,SW,225,0.0,0.0,94,0.00,,,0.00,VWS V14.01,2013-09-02 04:18:00,
2013-09-02 00:23:00,72.5,70.7,29.74,SW,225,0.0,0.0,94,0.00,,,0.00,VWS V14.01,2013-09-02 04:23:00,
2013-09-02 00:28:00,72.6,70.8,29.74,SW,225,0.0,2.0,94,0.00,,,0.00,VWS V14.01,2013-09-02 04:28:00,
2013-09-02 00:33:00,72.8,71.0,29.74,SW,225,0.0,1.0,94,0.00,,,0.00,VWS V14.01,2013-09-02 04:33:00,
2013-09-02 00:38:00,72.9,71.1,29.74,SW,225,0.0,1.0,94,0.00,,,0.00,VWS V14.01,2013-09-02 04:38:00,
2013-09-02 00:43:00,73.0,70.9,29.75,SW,225,1.0,3.0,93,0.00,,,0.00,VWS V14.01,2013-09-02 04:43:00,
2013-09-02 00:48:00,73.2,71.1,29.75,West,269,3.0,4.0,93,0.02,,,0.02,VWS V14.01,2013-09-02 04:48:00,
2013-09-02 00:53:00,72.6,69.5,29.76,SW,228,0.0,4.0,90,0.07,,-RA,0.07,VWS V14.01,2013-09-02 04:53:00,
2013-09-02 00:58:00,71.7,68.0,29.74,SW,228,0.0,2.0,88,0.10,,-RA,0.10,VWS V14.01,2013-09-02 04:58:00,
2013-09-02 01:03:00,70.8,67.4,29.73,SW,228,0.0,0.0,89,0.13,,-RA,0.13,VWS V14.01,2013-09-02 05:03:00,
2013-09-02 01:08:00,70.3,67.2,29.73,SW,228,0.0,0.0,90,0.13,,-RA,0.13,VWS V14.01,2013-09-02 05:08:00,
2013-09-02 01:13:00,69.9,67.2,29.74,SW,228,0.0,0.0,91,0.13,,-RA,0.13,VWS V14.01,2013-09-02 05:13:00,
2013-09-02 01:18:00,69.5,66.8,29.74,SW,228,0.0,0.0,91,0.13,,-RA,0.13,VWS V14.01,2013-09-02 05:18:00,
2013-09-02 01:23:00,69.1,66.4,29.73,SW,228,0.0,0.0,91,0.13,,-RA,0.13,VWS V14.01,2013-09-02 05:23:00,
2013-09-02 01:29:00,68.8,66.4,29.73,SW,228,0.0,0.0,92,0.13,,-RA,0.13,VWS V14.01,2013-09-02 05:29:00,
2013-09-02 01:34:00,68.7,66.3,29.73,SW,228,0.0,0.0,92,0.13,,-RA,0.13,VWS V14.01,2013-09-02 05:34:00,
2013-09-02 01:39:00,68.6,66.5,29.73,SW,228,0.0,0.0,93,0.13,,SCT110,0.13,VWS V14.01,2013-09-02 05:39:00,
2013-09-02 01:44:00,68.5,66.4,29.73,SW,228,0.0,0.0,93,0.13,,SCT110,0.13,VWS V14.01,2013-09-02 05:44:00,
2013-09-02 01:49:00,68.4,66.3,29.73,SW,228,0.0,0.0,93,0.13,,SCT110,0.13,VWS V14.01,2013-09-02 05:49:00,
2013-09-02 01:54:00,68.4,66.3,29.73,SW,228,0.0,0.0,93,0.09,,SCT110,0.13,VWS V14.01,2013-09-02 05:54:00,
2013-09-02 01:59:00,68.3,66.2,29.72,SW,228,0.0,0.0,93,0.05,,SCT110,0.13,VWS V14.01,2013-09-02 05:59:00,
2013-09-02 02:04:00,68.3,66.5,29.72,SW,228,0.0,0.0,94,0.01,,SCT110,0.13,VWS V14.01,2013-09-02 06:04:00,
2013-09-02 02:09:00,68.2,66.4,29.72,SW,228,0.0,0.0,94,0.00,,SCT110,0.13,VWS V14.01,2013-09-02 06:09:00,
2013-09-02 02:14:00,68.2,66.4,29.72,SW,228,0.0,0.0,94,0.00,,SCT110,0.13,VWS V14.01,2013-09-02 06:14:00,
2013-09-02 02:19:00,68.1,66.3,29.72,SW,228,0.0,0.0,94,0.00,,SCT110,0.13,VWS V14.01,2013-09-02 06:19:00,
2013-09-02 02:24:00,68.1,66.3,29.72,SW,228,0.0,0.0,94,0.00,,SCT110,0.13,VWS V14.01,2013-09-02 06:24:00,
2013-09-02 02:29:00,68.1,66.3,29.72,SW,228,0.0,0.0,94,0.00,,SCT110,0.13,VWS V14.01,2013-09-02 06:29:00,
2013-09-02 02:34:00,68.0,66.2,29.71,SW,228,0.0,0.0,94,0.00,,SCT110,0.13,VWS V14.01,2013-09-02 06:34:00,
2013-09-02 02:39:00,68.0,66.2,29.72,SW,228,0.0,0.0,94,0.00,,SCT120,0.13,VWS V14.01,2013-09-02 06:39:00,
2013-09-02 02:44:00,67.9,66.4,29.71,SW,228,0.0,0.0,95,0.00,,SCT120,0.13,VWS V14.01,2013-09-02 06:44:00,
2013-09-02 02:49:00,67.9,66.4,29.71,SW,228,0.0,0.0,95,0.00,,SCT120,0.13,VWS V14.01,2013-09-02 06:49:00,
2013-09-02 02:54:00,68.0,66.5,29.71,SW,228,0.0,0.0,95,0.00,,BKN018,0.13,VWS V14.01,2013-09-02 06:54:00,
2013-09-02 02:59:00,67.9,66.4,29.71,SW,228,0.0,0.0,95,0.00,,BKN018,0.13,VWS V14.01,2013-09-02 06:59:00,
2013-09-02 03:04:00,68.0,66.5,29.71,SW,228,0.0,0.0,95,0.00,,BKN018,0.13,VWS V14.01,2013-09-02 07:04:00,
2013-09-02 03:09:00,67.9,66.4,29.71,SW,228,0.0,0.0,95,0.00,,BKN018,0.13,VWS V14.01,2013-09-02 07:09:00,
2013-09-02 03:14:00,67.9,66.4,29.71,SW,228,0.0,0.0,95,0.00,,BKN018,0.13,VWS V14.01,2013-09-02 07:14:00,
2013-09-02 03:20:00,67.8,66.3,29.71,SW,228,0.0,0.0,95,0.00,,BKN018,0.13,VWS V14.01,2013-09-02 07:20:00,
2013-09-02 03:25:00,67.7,66.2,29.71,SW,228,0.0,0.0,95,0.00,,BKN018,0.13,VWS V14.01,2013-09-02 07:25:00,
2013-09-02 03:30:00,67.7,66.2,29.71,SW,228,0.0,0.0,95,0.00,,BKN018,0.13,VWS V14.01,2013-09-02 07:30:00,
2013-09-02 03:35:00,67.9,66.7,29.71,SW,228,0.0,0.0,96,0.00,,BKN018,0.13,VWS V14.01,2013-09-02 07:35:00,
2013-09-02 03:40:00,68.1,66.9,29.71,SW,228,0.0,0.0,96,0.00,,FEW018,0.13,VWS V14.01,2013-09-02 07:40:00,
2013-09-02 03:45:00,68.2,67.0,29.71,SW,228,0.0,0.0,96,0.00,,FEW018,0.13,VWS V14.01,2013-09-02 07:45:00,
2013-09-02 03:50:00,68.4,67.2,29.71,SW,228,0.0,0.0,96,0.00,,FEW018,0.13,VWS V14.01,2013-09-02 07:50:00,
2013-09-02 03:55:00,68.5,67.3,29.70,SW,228,0.0,0.0,96,0.00,,FEW018,0.13,VWS V14.01,2013-09-02 07:55:00,
2013-09-02 04:00:00,68.5,67.3,29.70,SW,228,0.0,0.0,96,0.00,,FEW018,0.13,VWS V14.01,2013-09-02 08:00:00,
2013-09-02 04:05:00,68.4,67.2,29.70,SW,228,0.0,0.0,96,0.00,,FEW018,0.13,VWS V14.01,2013-09-02 08:05:00,
2013-09-02 04:10:00,68.4,67.2,29.71,SW,228,0.0,0.0,96,0.00,,FEW018,0.13,VWS V14.01,2013-09-02 08:10:00,
2013-09-02 04:15:00,68.4,67.2,29.71,SW,228,0.0,0.0,96,0.00,,FEW018,0.13,VWS V14.01,2013-09-02 08:15:00,
2013-09-02 04:20:00,68.4,67.2,29.71,SW,228,0.0,0.0,96,0.00,,FEW018,0.13,VWS V14.01,2013-09-02 08:20:00,
2013-09-02 04:25:00,68.5,67.3,29.71,SW,228,0.0,2.0,96,0.00,,FEW018,0.13,VWS V14.01,2013-09-02 08:25:00,
2013-09-02 04:30:00,68.4,67.2,29.71,SW,228,0.0,0.0,96,0.00,,FEW018,0.13,VWS V14.01,2013-09-02 08:30:00,
2013-09-02 04:35:00,68.4,67.2,29.71,SW,228,0.0,0.0,96,0.00,,,0.13,VWS V14.01,2013-09-02 08:35:00,
2013-09-02 04:40:00,68.4,67.2,29.70,SW,228,0.0,0.0,96,0.00,,,0.13,VWS V14.01,2013-09-02 08:40:00,
2013-09-02 04:45:00,68.3,67.1,29.71,SW,228,0.0,0.0,96,0.00,,,0.13,VWS V14.01,2013-09-02 08:45:00,
2013-09-02 04:50:00,68.3,67.1,29.71,SW,228,0.0,0.0,96,0.00,,,0.13,VWS V14.01,2013-09-02 08:50:00,
2013-09-02 04:55:00,68.2,67.0,29.71,SW,228,0.0,0.0,96,0.00,,,0.13,VWS V14.01,2013-09-02 08:55:00,
2013-09-02 05:00:00,68.1,66.9,29.71,SW,228,0.0,0.0,96,0.00,,,0.13,VWS V14.01,2013-09-02 09:00:00,
2013-09-02 05:05:00,68.1,66.9,29.71,SW,228,0.0,0.0,96,0.00,,,0.13,VWS V14.01,2013-09-02 09:05:00,
2013-09-02 05:10:00,68.1,66.9,29.71,SW,228,0.0,0.0,96,0.00,,,0.13,VWS V14.01,2013-09-02 09:10:00,
2013-09-02 05:15:00,68.0,66.8,29.72,SW,228,0.0,0.0,96,0.00,,,0.13,VWS V14.01,2013-09-02 09:15:00,
2013-09-02 05:20:00,68.1,66.9,29.71,SW,228,0.0,0.0,96,0.00,,,0.13,VWS V14.01,2013-09-02 09:20:00,
2013-09-02 05:25:00,68.2,67.0,29.71,SW,228,0.0,0.0,96,0.00,,,0.13,VWS V14.01,2013-09-02 09:25:00,
2013-09-02 05:30:00,68.3,67.1,29.72,SW,228,0.0,0.0,96,0.00,,,0.13,VWS V14.01,2013-09-02 09:30:00,
2013-09-02 05:35:00,68.4,67.2,29.72,SW,228,0.0,0.0,96,0.00,,,0.13,VWS V14.01,2013-09-02 09:35:00,
2013-09-02 05:40:00,68.5,67.3,29.72,SW,228,0.0,0.0,96,0.00,,,0.13,VWS V14.01,2013-09-02 09:40:00,
2013-09-02 05:45:00,68.5,67.3,29.71,SW,228,0.0,0.0,96,0.00,,,0.13,VWS V14.01,2013-09-02 09:45:00,
2013-09-02 05:51:00,68.6,67.4,29.72,SW,228,0.0,0.0,96,0.00,,,0.13,VWS V14.01,2013-09-02 09:51:00,
2013-09-02 05:56:00,68.6,67.4,29.72,SW,228,0.0,0.0,96,0.00,,,0.13,VWS V14.01,2013-09-02 09:56:00,
2013-09-02 06:01:00,68.6,67.4,29.72,SW,228,0.0,0.0,96,0.00,,,0.13,VWS V14.01,2013-09-02 10:01:00,
2013-09-02 06:06:00,68.6,67.4,29.72,SW,228,0.0,0.0,96,0.00,,,0.13,VWS V14.01,2013-09-02 10:06:00,
2013-09-02 06:11:00,68.6,67.4,29.73,SW,228,0.0,0.0,96,0.00,,,0.13,VWS V14.01,2013-09-02 10:11:00,
2013-09-02 06:16:00,68.5,67.3,29.73,SW,228,0.0,0.0,96,0.00,,,0.13,VWS V14.01,2013-09-02 10:16:00,
2013-09-02 06:21:00,68.6,67.4,29.73,SW,228,0.0,0.0,96,0.00,,,0.13,VWS V14.01,2013-09-02 10:21:00,
2013-09-02 06:26:00,68.5,67.3,29.74,SW,228,0.0,0.0,96,0.00,,,0.13,VWS V14.01,2013-09-02 10:26:00,
2013-09-02 06:31:00,68.5,67.3,29.74,SW,228,0.0,0.0,96,0.00,,,0.13,VWS V14.01,2013-09-02 10:31:00,
2013-09-02 06:36:00,68.5,67.3,29.74,SW,228,0.0,0.0,96,0.00,,OVC016,0.13,VWS V14.01,2013-09-02 10:36:00,
2013-09-02 06:41:00,68.5,67.3,29.75,SW,228,0.0,0.0,96,0.00,,OVC016,0.13,VWS V14.01,2013-09-02 10:41:00,
2013-09-02 06:46:00,68.5,67.3,29.75,SW,228,0.0,0.0,96,0.00,,OVC016,0.13,VWS V14.01,2013-09-02 10:46:00,
2013-09-02 06:51:00,68.4,67.2,29.75,SW,228,0.0,0.0,96,0.00,,OVC016,0.13,VWS V14.01,2013-09-02 10:51:00,
2013-09-02 06:56:00,68.3,67.1,29.75,SW,228,0.0,0.0,96,0.00,,OVC016,0.13,VWS V14.01,2013-09-02 10:56:00,
2013-09-02 07:01:00,68.3,67.1,29.75,SW,228,0.0,0.0,96,0.00,,OVC016,0.13,VWS V14.01,2013-09-02 11:01:00,
2013-09-02 07:06:00,68.3,67.1,29.75,SW,228,0.0,0.0,96,0.00,,OVC016,0.13,VWS V14.01,2013-09-02 11:06:00,
2013-09-02 07:11:00,68.2,67.0,29.75,SW,228,0.0,0.0,96,0.00,,OVC016,0.13,VWS V14.01,2013-09-02 11:11:00,
2013-09-02 07:16:00,68.2,67.0,29.76,SW,228,0.0,0.0,96,0.00,,OVC016,0.13,VWS V14.01,2013-09-02 11:16:00,
2013-09-02 07:21:00,68.2,67.0,29.76,SW,228,0.0,0.0,96,0.00,,OVC016,0.13,VWS V14.01,2013-09-02 11:21:00,
2013-09-02 07:26:00,68.1,66.9,29.76,North,350,0.0,0.0,96,0.00,,OVC016,0.13,VWS V14.01,2013-09-02 11:26:00,
2013-09-02 07:31:00,68.2,67.0,29.76,North,350,0.0,0.0,96,0.00,,OVC016,0.13,VWS V14.01,2013-09-02 11:31:00,
2013-09-02 07:36:00,68.2,67.0,29.76,North,350,0.0,0.0,96,0.00,,OVC027,0.13,VWS V14.01,2013-09-02 11:36:00,
2013-09-02 07:41:00,68.3,67.1,29.76,North,350,0.0,2.0,96,0.00,,OVC027,0.13,VWS V14.01,2013-09-02 11:41:00,
2013-09-02 07:46:00,68.2,67.0,29.76,North,355,0.0,0.0,96,0.00,,OVC027,0.13,VWS V14.01,2013-09-02 11:46:00,
2013-09-02 07:51:00,68.2,67.0,29.76,NNW,346,0.0,1.0,96,0.00,,OVC027,0.13,VWS V14.01,2013-09-02 11:51:00,
2013-09-02 07:56:00,68.1,66.9,29.77,North,5,5.0,5.0,96,0.00,,OVC027,0.13,VWS V14.01,2013-09-02 11:56:00,
2013-09-02 08:01:00,67.9,66.7,29.77,North,5,0.0,3.0,96,0.00,,OVC027,0.13,VWS V14.01,2013-09-02 12:01:00,
2013-09-02 08:06:00,67.9,66.7,29.77,North,355,0.0,3.0,96,0.00,,OVC027,0.13,VWS V14.01,2013-09-02 12:06:00,
2013-09-02 08:11:00,67.9,66.7,29.77,North,355,0.0,1.0,96,0.00,,OVC027,0.13,VWS V14.01,2013-09-02 12:11:00,
2013-09-02 08:17:00,67.9,66.7,29.77,NE,37,3.0,3.0,96,0.00,,OVC027,0.13,VWS V14.01,2013-09-02 12:17:00,
2013-09-02 08:22:00,67.9,66.7,29.77,NNE,32,0.0,0.0,96,0.00,,OVC027,0.13,VWS V14.01,2013-09-02 12:22:00,
2013-09-02 08:27:00,68.1,66.9,29.77,ENE,71,0.0,0.0,96,0.00,,OVC027,0.13,VWS V14.01,2013-09-02 12:27:00,
2013-09-02 08:32:00,68.1,66.9,29.77,NNW,348,3.0,3.0,96,0.00,,OVC027,0.13,VWS V14.01,2013-09-02 12:32:00,
2013-09-02 08:37:00,67.9,66.7,29.77,NNE,26,1.0,3.0,96,0.01,,OVC027,0.14,VWS V14.01,2013-09-02 12:37:00,
2013-09-02 08:42:00,67.5,66.3,29.77,North,355,0.0,6.0,96,0.01,,OVC027,0.14,VWS V14.01,2013-09-02 12:42:00,
2013-09-02 08:47:00,67.2,65.7,29.78,North,355,0.0,0.0,95,0.01,,OVC027,0.14,VWS V14.01,2013-09-02 12:47:00,
2013-09-02 08:52:00,67.2,66.0,29.78,North,360,0.0,1.0,96,0.01,,OVC027,0.14,VWS V14.01,2013-09-02 12:52:00,
2013-09-02 08:57:00,67.0,65.8,29.78,NNW,336,3.0,9.0,96,0.01,,OVC027,0.14,VWS V14.01,2013-09-02 12:57:00,
2013-09-02 09:02:00,67.0,65.8,29.78,NNE,12,0.0,6.0,96,0.01,,OVC027,0.14,VWS V14.01,2013-09-02 13:02:00,
2013-09-02 09:07:00,67.0,65.8,29.78,NNE,25,0.0,1.0,96,0.01,,OVC027,0.14,VWS V14.01,2013-09-02 13:07:00,
2013-09-02 09:12:00,67.3,66.1,29.78,NNW,338,0.0,1.0,96,0.01,,OVC027,0.14,VWS V14.01,2013-09-02 13:12:00,
2013-09-02 09:17:00,67.4,65.9,29.79,NW,317,0.0,3.0,95,0.01,,OVC027,0.14,VWS V14.01,2013-09-02 13:17:00,
2013-09-02 09:22:00,67.3,65.8,29.79,NNE,15,0.0,2.0,95,0.01,,OVC027,0.14,VWS V14.01,2013-09-02 13:22:00,
2013-09-02 09:27:00,67.3,65.5,29.79,NNW,336,0.0,4.0,94,0.01,,OVC027,0.14,VWS V14.01,2013-09-02 13:27:00,
2013-09-02 09:32:00,67.2,65.4,29.79,NNE,32,0.0,1.0,94,0.01,,OVC027,0.14,VWS V14.01,2013-09-02 13:32:00,
2013-09-02 09:37:00,67.1,65.0,29.79,North,11,0.0,4.0,93,0.00,,OVC027,0.14,VWS V14.01,2013-09-02 13:37:00,
2013-09-02 09:42:00,67.0,64.9,29.79,NNW,336,3.0,6.0,93,0.00,,OVC027,0.14,VWS V14.01,2013-09-02 13:42:00,
2013-09-02 09:47:00,66.9,64.5,29.79,North,350,0.0,3.0,92,0.00,,OVC027,0.14,VWS V14.01,2013-09-02 13:47:00,
2013-09-02 09:52:00,67.1,65.0,29.79,North,350,0.0,0.0,93,0.00,,OVC027,0.14,VWS V14.01,2013-09-02 13:52:00,
2013-09-02 09:57:00,67.4,65.0,29.79,East,101,0.0,3.0,92,0.00,,OVC027,0.14,VWS V14.01,2013-09-02 13:57:00,
2013-09-02 10:02:00,67.8,65.4,29.79,NE,40,0.0,4.0,92,0.00,,OVC027,0.14,VWS V14.01,2013-09-02 14:02:00,
2013-09-02 10:07:00,68.1,65.4,29.80,NE,40,1.0,1.0,91,0.00,,OVC027,0.14,VWS V14.01,2013-09-02 14:07:00,
2013-09-02 10:12:00,68.3,65.3,29.80,North,355,0.0,2.0,90,0.00,,OVC027,0.14,VWS V14.01,2013-09-02 14:12:00,
2013-09-02 10:18:00,68.3,64.9,29.80,NNE,21,0.0,5.0,89,0.00,,OVC027,0.14,VWS V14.01,2013-09-02 14:18:00,
2013-09-02 10:23:00,68.4,65.0,29.80,NE,43,0.0,0.0,89,0.00,,OVC027,0.14,VWS V14.01,2013-09-02 14:23:00,
2013-09-02 10:28:00,68.3,64.6,29.80,NNE,14,1.0,4.0,88,0.00,,OVC027,0.14,VWS V14.01,2013-09-02 14:28:00,
2013-09-02 10:33:00,68.2,64.5,29.80,NNE,24,0.0,2.0,88,0.00,,OVC027,0.14,VWS V14.01,2013-09-02 14:33:00,
2013-09-02 10:38:00,68.1,64.1,29.81,North,10,0.0,7.0,87,0.00,,OVC027,0.14,VWS V14.01,2013-09-02 14:38:00,
2013-09-02 10:43:00,67.9,63.9,29.81,NNE,22,0.0,8.0,87,0.00,,OVC027,0.14,VWS V14.01,2013-09-02 14:43:00,
2013-09-02 10:48:00,67.9,63.9,29.81,North,355,0.0,6.0,87,0.00,,OVC027,0.14,VWS V14.01,2013-09-02 14:48:00,
2013-09-02 10:53:00,67.9,63.9,29.81,NNE,20,0.0,2.0,87,0.00,,OVC027,0.14,VWS V14.01,2013-09-02 14:53:00,
2013-09-02 10:58:00,67.9,63.9,29.81,NNE,30,3.0,3.0,87,0.00,,OVC027,0.14,VWS V14.01,2013-09-02 14:58:00,
2013-09-02 11:03:00,67.9,63.2,29.81,North,5,0.0,5.0,85,0.00,,OVC027,0.14,VWS V14.01,2013-09-02 15:03:00,
2013-09-02 11:08:00,68.2,63.5,29.82,NNW,347,0.0,4.0,85,0.00,,OVC027,0.14,VWS V14.01,2013-09-02 15:08:00,
2013-09-02 11:13:00,68.4,63.0,29.82,NNE,19,1.0,5.0,83,0.00,,OVC027,0.14,VWS V14.01,2013-09-02 15:13:00,
2013-09-02 11:18:00,68.7,63.0,29.82,NE,53,0.0,3.0,82,0.00,,OVC027,0.14,VWS V14.01,2013-09-02 15:18:00,
2013-09-02 11:23:00,68.7,62.3,29.82,WNW,299,0.0,6.0,80,0.00,,OVC027,0.14,VWS V14.01,2013-09-02 15:23:00,
2013-09-02 11:28:00,68.7,63.0,29.82,NNE,24,0.0,0.0,82,0.00,,OVC027,0.14,VWS V14.01,2013-09-02 15:28:00,
2013-09-02 11:33:00,68.7,62.6,29.82,NE,34,0.0,2.0,81,0.00,,OVC027,0.14,VWS V14.01,2013-09-02 15:33:00,
2013-09-02 11:38:00,68.9,62.8,29.82,NNE,13,5.0,5.0,81,0.00,,OVC027,0.14,VWS V14.01,2013-09-02 15:38:00,
2013-09-02 11:43:00,69.3,62.5,29.82,WNW,296,0.0,1.0,79,0.00,,OVC027,0.14,VWS V14.01,2013-09-02 15:43:00,
2013-09-02 11:48:00,69.6,62.4,29.82,North,9,0.0,5.0,78,0.00,,OVC027,0.14,VWS V14.01,2013-09-02 15:48:00,
2013-09-02 11:53:00,70.0,63.2,29.82,North,5,0.0,1.0,79,0.00,,OVC027,0.14,VWS V14.01,2013-09-02 15:53:00,
2013-09-02 11:58:00,70.4,63.2,29.82,North,5,0.0,3.0,78,0.00,,OVC027,0.14,VWS V14.01,2013-09-02 15:58:00,
2013-09-02 12:03:00,70.9,63.3,29.82,North,360,2.0,2.0,77,0.00,,OVC027,0.14,VWS V14.01,2013-09-02 16:03:00,
2013-09-02 12:08:00,71.5,63.9,29.82,NNW,327,0.0,3.0,77,0.00,,OVC027,0.14,VWS V14.01,2013-09-02 16:08:00,
2013-09-02 12:13:00,72.1,64.1,29.82,North,355,2.0,4.0,76,0.00,,OVC027,0.14,VWS V14.01,2013-09-02 16:13:00,
2013-09-02 12:18:00,72.6,63.8,29.82,North,360,0.0,4.0,74,0.00,,OVC027,0.14,VWS V14.01,2013-09-02 16:18:00,
2013-09-02 12:23:00,73.0,63.8,29.82,North,350,1.0,4.0,73,0.00,,OVC027,0.14,VWS V14.01,2013-09-02 16:23:00,
2013-09-02 22:45:00,63.8,53.8,29.89,NNE,15,0.0,3.0,70,0.00,,OVC028,0.14,VWS V14.01,2013-09-03 02:45:00,
2013-09-02 22:50:00,63.7,53.7,29.89,North,5,0.0,6.0,70,0.00,,OVC028,0.14,VWS V14.01,2013-09-03 02:50:00,
2013-09-02 22:55:00,63.6,54.0,29.89,NNW,335,0.0,3.0,71,0.00,,OVC028,0.14,VWS V14.01,2013-09-03 02:55:00,
2013-09-02 23:00:00,63.5,53.9,29.89,SE,127,0.0,1.0,71,0.00,,OVC028,0.14,VWS V14.01,2013-09-03 03:00:00,
2013-09-02 23:05:00,63.4,53.8,29.89,North,355,0.0,0.0,71,0.00,,OVC028,0.14,VWS V14.01,2013-09-03 03:05:00,
2013-09-02 23:10:00,63.3,53.8,29.89,NW,309,0.0,0.0,71,0.00,,OVC028,0.14,VWS V14.01,2013-09-03 03:10:00,
2013-09-02 23:15:00,63.1,53.9,29.89,NE,44,0.0,0.0,72,0.00,,OVC028,0.14,VWS V14.01,2013-09-03 03:15:00,
2013-09-02 23:21:00,63.1,53.9,29.89,NE,44,0.0,0.0,72,0.00,,OVC028,0.14,VWS V14.01,2013-09-03 03:21:00,
2013-09-02 23:26:00,63.0,53.8,29.89,WNW,286,0.0,2.0,72,0.00,,OVC028,0.14,VWS V14.01,2013-09-03 03:26:00,
2013-09-02 23:31:00,62.8,54.0,29.89,NW,310,0.0,0.0,73,0.00,,OVC028,0.14,VWS V14.01,2013-09-03 03:31:00,
2013-09-02 23:36:00,62.7,54.3,29.89,NNE,28,0.0,0.0,74,0.00,,OVC032,0.14,VWS V14.01,2013-09-03 03:36:00,
2013-09-02 23:41:00,62.6,54.2,29.90,NW,307,0.0,1.0,74,0.00,,OVC032,0.14,VWS V14.01,2013-09-03 03:41:00,
2013-09-02 23:46:00,62.3,54.3,29.90,North,355,4.0,4.0,75,0.00,,OVC032,0.14,VWS V14.01,2013-09-03 03:46:00,
2013-09-02 23:51:00,62.1,54.5,29.90,NNW,344,0.0,0.0,76,0.00,,OVC032,0.14,VWS V14.01,2013-09-03 03:51:00,
2013-09-02 23:56:00,62.0,54.7,29.89,North,5,0.0,0.0,77,0.00,,OVC032,0.14,VWS V14.01,2013-09-03 03:56:00,